Regional Weather Roundup
Issued by NWS

Home | Current Version | Previous Version | Text Only | Print | Product List | Glossary Off
Versions: 1 2 3 4 5 6 7 8 9 10 11 12 13 14 15 16 17 18 19 20 21 22 23 24 25 26 27 28 29 30 31 32 33 34 35 36 37 38 39 40 41 42 43 44 45 46 47 48 49 50

000
ASUS45 KTFX 010710
RWRMT
MONTANA REGIONAL WEATHER ROUNDUP
NATIONAL WEATHER SERVICE GREAT FALLS MT
100 AM MDT SAT OCT 01 2016

NOTE: "FAIR" INDICATES FEW OR NO CLOUDS BELOW 12000 FEET WITH NO
SIGNIFICANT WEATHER AND/OR OBSTRUCTIONS TO VISIBILITY.

MTZ001>007-043-010800-
WEST OF THE DIVIDE

CITY           SKY/WX    TMP DP  RH WIND       PRES   REMARKS
KALISPELL      PTCLDY    53  47  79 W3        29.86F
MISSOULA       PTCLDY    61  41  47 SE8       29.90S
BUTTE          CLEAR     44  39  82 CALM      30.09S
MULLAN PASS      N/A     54  33  45 VRB5      29.96F
ANACONDA         N/A     50  37  62 S5        30.05S
DEER LODGE       N/A     52  41  66 CALM      30.04S
EUREKA           N/A     52  48  87 CALM      29.89F
HAMILTON         N/A     54  43  66 E6        29.92F
LIBBY            N/A     54  50  87 CALM      29.85S
$$

MTZ008-052>055-010800-
SOUTHWEST MONTANA

CITY           SKY/WX    TMP DP  RH WIND       PRES   REMARKS
BOZEMAN        CLEAR     54  42  64 S9        30.05S
DILLON         CLOUDY    52  40  63 S3        30.07S
W YELLOWSTONE  CLEAR     36  34  93 CALM      30.23R
ENNIS          CLEAR     55  41  58 S10       30.13F
$$

MTZ009-010-012-014-046-048-049-054-010800-
EAST SLOPES AND CENTRAL MONTANA

CITY           SKY/WX    TMP DP  RH WIND       PRES   REMARKS
CUT BANK       CLOUDY    56  48  74 E3        29.95F
GREAT FALLS    CLOUDY    64  42  44 SW12      29.94F
MALMSTROM AFB  CLOUDY    62  44  51 W2        29.94F
HELENA         CLEAR     58  41  53 S3        29.98S
BOWMANS CRNR     N/A     58  42  55 W6        29.96F
CHOTEAU          N/A     61  45  55 SW6       29.97S
POWER            N/A     55  42  62 E3        29.95F
$$

MTZ011-013-016-021-045-047-050-051-010800-
NORTH CENTRAL MONTANA

CITY           SKY/WX    TMP DP  RH WIND       PRES   REMARKS
HAVRE          CLEAR     57  52  83 E8        29.93F
LEWISTOWN      CLEAR     53  45  74 SE10      30.02F
N BAR RANCH      N/A     52  45  76 CALM      30.08S
CHINOOK          N/A     55  52  88 CALM      29.95R
DENTON           N/A     53  48  83 S12       29.95F
GRASS RANGE      N/A     55  46  70 W5        29.99F
STANFORD         N/A     53  46  75 S6        30.02F
WINIFRED         N/A     59  45  60 MISG      29.98F
$$

MTZ017>020-022>027-061-062-010800-
NORTHEAST MONTANA

CITY           SKY/WX    TMP DP  RH WIND       PRES   REMARKS
GLASGOW        CLEAR     55  50  83 VRB5      29.96R
JORDAN           N/A     51  49  92 W3        29.97S
SIDNEY         CLEAR     49  46  90 CALM      29.97S
WOLF POINT     CLEAR     53  50  89 E6        29.97R
PLENTYWOOD       N/A     52  48  87 E6        29.99S
POPLAR           N/A     54  50  87 NE7       29.96S
$$

MTZ028>42-056>058-010800-
SOUTHCENTRAL AND SOUTHEAST MONTANA

CITY           SKY/WX    TMP DP  RH WIND       PRES   REMARKS
BAKER          CLEAR     52  46  80 SE5       30.00S
BILLINGS       PTCLDY    64  47  53 CALM      30.01S
LIVINGSTON     CLEAR     50  39  66 CALM      30.06S
MILES CITY     CLEAR     63  52  67 CALM      29.96F
BIG TIMBER     CLEAR     54  43  66 SW12      30.07F
$$

REGIONAL REPORTS...DAKOTAS

CITY           SKY/WX    TMP DP  RH WIND       PRES   REMARKS
WILLISTON      CLEAR     50  46  86 N5        29.99S
MINOT          CLEAR     51  46  83 SE6       30.05R
DICKINSON      CLEAR     50  44  80 SE10      29.99S
BEACH            N/A     50  48  93 S5        30.02S
CROSBY           N/A     46  46 100 E6        30.03S
WATFORD CITY     N/A     52  48  87 E6        30.00S
BISMARCK       PTCLDY    60  46  59 SE10      30.06S
GRAND FORKS    PTCLDY    54  48  80 SE6       30.17S
FARGO          PTCLDY    56  48  74 SE10      30.17S
BUFFALO SD       N/A     59  47  64 CALM      29.95S
RAPID CITY     CLEAR     52  47  83 SE5       30.03S
$$

REGIONAL REPORTS...WYOMING/IDAHO/WASHINGTON

CITY           SKY/WX    TMP DP  RH WIND       PRES   REMARKS
GILLETTE       CLEAR     49  46  90 SW3       30.06F
SHERIDAN       CLEAR     51  46  83 S6        30.05S
BUFFALO WY     CLEAR     57  43  59 W8        30.11S
CODY           CLEAR     57  43  58 S3        30.12F
YELLOWSTONE LA   N/A     34  34 100 CALM      30.30S
IDAHO FALLS    CLOUDY    50  45  83 N5        30.09S
SALMON         CLOUDY    52  43  71 CALM      30.02R
BOISE          MOCLDY    72  45  37 SE13      29.84S
SPOKANE        LGT RAIN  58  47  66 W14       29.91R
$$

REGIONAL REPORTS...ALBERTA

CITY           SKY/WX    TMP DP  RH WIND       PRES   REMARKS
EDMONTON       CLOUDY    45  43  93 NE9       30.13R
CALGARY        CLOUDY    50  46  87 N13       30.04R FOG
LETHBRIDGE     MOCLDY    54  50  87 W9        29.99R
MEDICINE HAT   CLOUDY    54  52  94 N10       29.94R
WATERTON GATE    N/A     46  43  87 S1          N/A
MILK RIVER       N/A     52  48  87 NW8         N/A
$$

REGIONAL REPORTS...SASKATCHEWAN

CITY           SKY/WX    TMP DP  RH WIND       PRES   REMARKS
SWIFT CURRENT  CLEAR     50  48  93 E5        29.98F
REGINA         CLEAR     48  46  93 SE7       30.02R
SASKATOON      CLEAR     48  48 100 NE7       30.03R
CYPRESS HILLS    N/A     57  46  67 SE6         N/A
VAL MARIE        N/A     46  45  93 NE5         N/A
ROCKGLEN         N/A     54  50  87 S5          N/A
ASSINIBOIA       N/A     48  45  87 NE8         N/A
$$



USA.gov is the U.S. government's official web portal to all federal, state and local government web resources and services.